Volver al catálogo

EUTE 2-F4

ActivoComunicacionesGEO
NORAD 22028·PAYLOAD·🇪🇺 EU

Lanzado Jul 9, 1992 desde Guiana Space Centre

Loading…

TLE

ActualizadoSource: Space-Track

Época: Sep 14, 2026, 20:58 UTC

1 22028U 92041B   26257.87390052  .00000042  00000-0  00000-0 0  9992
2 22028  14.7804   4.7434 0008370 265.1420 107.9517  0.99074907 47646

Sigue EUTE 2-F4 en tiempo real con AllMySat

Download on the App Store